Погода в Гвардейском

Россия / Республика Крым     45°06′56″N   34°00′50″E
темп.,
°C
ветер,
м/с
пор.,
м/с
влажн.,
%
обл.,
%
осадки,
мм/ч
давл.,
гПа
погр.,
м
6 мая, чт
чт600:00+8ююв22543 0.0 101317
03:00+7юв22466 0.0 101213
06:00+8юв224460 0.0 101113
09:00+16ю113474 0.0 1011370
12:00+19сз323195 0.0 10111347
15:00+19зсз54375 0.0 10111141
18:00+16зсз444720 0.0 1012414
21:00+9зюз11765 0.0 101512
7 мая, пт
пт700:00+9ю227183 0.0 101511
03:00+10зюз11666 0.0 101613
06:00+9ю11735 0.0 101611
09:00+16ссв114864 0.0 1016445
12:00+20з3344100 0.0 10161142
15:00+20з544651 0.0 10151099
18:00+17з34535 0.0 1014415
21:00+13юв3370100 0.0 101424
8 мая, сб
сб800:00+12ююв3360100 0.0 101344
03:00+11ююв3371100 0.0 101235
06:00+13юв3368100 0.0 101145
09:00+20ююв235199 0.0 1011354
12:00+24сз23375 0.0 10101792
15:00+19зсз77575 0.0 1011579
18:00+17ссз6670100 0.0 1012945
21:00+10ссв61185100 0.4 1015785
9 мая, вс
вс900:00+9с5996100 2.3 1016708
03:00+8с51088100 6.2 1018841
06:00+6ссз49925 0.3 1021351
09:00+10ссз69614 0.4 10231229
12:00+13ссз68425 0.0 10241929
15:00+14ссз673899 0.0 10252622
18:00+14ссз45438 0.0 10252220
21:00+7з23731 0.0 102844
10 мая, пн
пн1000:00+6ю338466 0.0 102836
03:00+6ю22788 0.0 102814
06:00+6ююв11785 0.0 102810
09:00+12с24565 0.0 1027706
12:00+15с463926 0.0 10262247
15:00+16с56365 0.0 10242310
18:00+14с564572 0.0 10231884
21:00+9с226133 0.0 102312